Voltar ao catálogo

SL-12 R/B

AUX MOTOR

AtivoHEO
NORAD 28919·ROCKET BODY·🇷🇺 Russia

Lançado Dec 25, 2005 de Baikonur Cosmodrome

Loading…

Próximas Passagens (próximas 24 horas)

TLE

AtualizadoSource: Space-Track

Época: Sep 14, 2026, 11:53 UTC

1 28919U 05050E   26257.49546243  .00000147  00000-0  54558-3 0  9990
2 28919  65.0279  29.0933 5735474 192.8464 142.2126  4.24381772320130

Acompanhe SL-12 R/B em tempo real com AllMySat

Download on the App Store